Time,TemperatureF,DewpointF,PressureIn,WindDirection,WindDirectionDegrees,WindSpeedMPH,WindSpeedGustMPH,Humidity,HourlyPrecipIn,Conditions,Clouds,dailyrainin,SolarRadiationWatts/m^2,SoftwareType,DateUTC
2013-03-09 03:00:00,30.0,26.0,30.34,West,270,6.0,-999.0,84,-99.99,,,-99.99,0.050000,,2013-03-09 08:00:00,
2013-03-09 03:52:00,30.0,26.0,30.34,West,270,6.0,-999.0,84,-99.99,,,-99.99,0.050000,,2013-03-09 08:52:00,
2013-03-09 04:00:00,30.0,26.0,30.34,West,273,7.0,-999.0,86,-99.99,,,-99.99,0.060000,,2013-03-09 09:00:00,
2013-03-09 04:52:00,30.0,26.0,30.34,West,273,7.0,-999.0,86,-99.99,,,-99.99,0.060000,,2013-03-09 09:52:00,
2013-03-09 05:00:00,30.0,26.0,30.34,West,269,6.0,-999.0,87,-99.99,,,-99.99,0.070000,,2013-03-09 10:00:00,
2013-03-09 05:52:00,30.0,26.0,30.34,West,269,6.0,-999.0,87,-99.99,,,-99.99,0.070000,,2013-03-09 10:52:00,
2013-03-09 06:00:00,29.0,26.0,30.34,West,273,6.0,-999.0,88,-99.99,,,-99.99,0.070000,,2013-03-09 11:00:00,
2013-03-09 06:52:00,29.0,26.0,30.34,West,273,6.0,-999.0,88,-99.99,,,-99.99,0.070000,,2013-03-09 11:52:00,
2013-03-09 07:00:00,30.0,27.0,30.36,West,275,6.0,-999.0,87,-99.99,,,-99.99,15.910000,,2013-03-09 12:00:00,
2013-03-09 07:52:00,30.0,27.0,30.36,West,275,6.0,-999.0,87,-99.99,,,-99.99,15.910000,,2013-03-09 12:52:00,
2013-03-09 08:00:00,32.0,28.0,30.38,West,278,7.0,-999.0,84,-99.99,,,-99.99,163.500000,,2013-03-09 13:00:00,
2013-03-09 08:52:00,32.0,28.0,30.38,West,278,7.0,-999.0,84,-99.99,,,-99.99,163.500000,,2013-03-09 13:52:00,
2013-03-09 09:00:00,34.0,30.0,30.39,West,276,7.0,-999.0,84,-99.99,,,-99.99,362.799988,,2013-03-09 14:00:00,
2013-03-09 09:52:00,34.0,30.0,30.39,West,276,7.0,-999.0,84,-99.99,,,-99.99,362.799988,,2013-03-09 14:52:00,
2013-03-09 10:00:00,37.0,30.0,30.40,West,279,5.0,-999.0,76,-99.99,,,-99.99,541.000000,,2013-03-09 15:00:00,
2013-03-09 10:52:00,37.0,30.0,30.40,West,279,5.0,-999.0,76,-99.99,,,-99.99,541.000000,,2013-03-09 15:52:00,
2013-03-09 11:00:00,40.0,28.0,30.39,WNW,292,3.0,-999.0,62,-99.99,,,-99.99,674.299988,,2013-03-09 16:00:00,
2013-03-09 11:52:00,40.0,28.0,30.39,WNW,292,3.0,-999.0,62,-99.99,,,-99.99,674.299988,,2013-03-09 16:52:00,
2013-03-09 12:00:00,42.0,27.0,30.39,North,6,2.0,-999.0,56,-99.99,,,-99.99,748.599976,,2013-03-09 17:00:00,
2013-03-09 12:52:00,42.0,27.0,30.39,North,6,2.0,-999.0,56,-99.99,,,-99.99,748.599976,,2013-03-09 17:52:00,
2013-03-09 13:00:00,43.0,30.0,30.36,NW,312,3.0,-999.0,58,-99.99,,,-99.99,762.400024,,2013-03-09 18:00:00,
2013-03-09 13:52:00,43.0,30.0,30.36,NW,312,3.0,-999.0,58,-99.99,,,-99.99,762.400024,,2013-03-09 18:52:00,
2013-03-09 14:00:00,45.0,31.0,30.35,NNE,27,2.0,-999.0,58,-99.99,,,-99.99,720.099976,,2013-03-09 19:00:00,
2013-03-09 14:52:00,45.0,31.0,30.35,NNE,27,2.0,-999.0,58,-99.99,,,-99.99,720.099976,,2013-03-09 19:52:00,
2013-03-09 15:00:00,46.0,30.0,30.34,South,180,3.0,-999.0,54,-99.99,,,-99.99,612.200012,,2013-03-09 20:00:00,
2013-03-09 15:52:00,46.0,30.0,30.34,South,180,3.0,-999.0,54,-99.99,,,-99.99,612.200012,,2013-03-09 20:52:00,
2013-03-09 16:00:00,46.0,29.0,30.33,SE,143,2.0,-999.0,52,-99.99,,,-99.99,457.799988,,2013-03-09 21:00:00,
2013-03-09 16:52:00,46.0,29.0,30.33,SE,143,2.0,-999.0,52,-99.99,,,-99.99,457.799988,,2013-03-09 21:52:00,
2013-03-09 19:00:00,38.0,28.0,30.32,SSE,158,3.0,-999.0,67,-99.99,,,-99.99,0.960000,,2013-03-10 00:00:00,
2013-03-09 19:52:00,38.0,28.0,30.32,SSE,158,3.0,-999.0,67,-99.99,,,-99.99,0.960000,,2013-03-10 00:52:00,
2013-03-09 20:00:00,36.0,28.0,30.30,East,100,2.0,-999.0,72,-99.99,,,-99.99,0.000000,,2013-03-10 01:00:00,
2013-03-09 20:52:00,36.0,28.0,30.30,East,100,2.0,-999.0,72,-99.99,,,-99.99,0.000000,,2013-03-10 01:52:00,
2013-03-09 21:00:00,35.0,27.0,30.29,ESE,118,1.0,-999.0,72,-99.99,,,-99.99,0.010000,,2013-03-10 02:00:00,
2013-03-09 21:52:00,35.0,27.0,30.29,ESE,118,1.0,-999.0,72,-99.99,,,-99.99,0.010000,,2013-03-10 02:52:00,
2013-03-09 22:00:00,32.0,25.0,30.28,South,172,1.0,-999.0,75,-99.99,,,-99.99,0.010000,,2013-03-10 03:00:00,
2013-03-09 22:52:00,32.0,25.0,30.28,South,172,1.0,-999.0,75,-99.99,,,-99.99,0.010000,,2013-03-10 03:52:00,
2013-03-09 23:00:00,32.0,27.0,30.25,South,176,3.0,-999.0,82,-99.99,,,-99.99,0.040000,,2013-03-10 04:00:00,
2013-03-09 23:52:00,32.0,27.0,30.25,South,176,3.0,-999.0,82,-99.99,,,-99.99,0.040000,,2013-03-10 04:52:00,